sat.trackr.live / text

‹ back to catalog

STARLINK-31666

NORAD 59572 · 2024-076J

PAYLOAD ACTIVE UNKNOWN

§ Identity

Operator
Country
US
Launch date
2024-04-23
Launch site
AFETR
Launch vehicle
Mass (kg)
RCS (m²)

Purposes: comms

External: N2YO · Heavens-Above · Gunter

§ Orbital elements

Epoch: 2026-09-21T06:21:28.822752Z

Period
94.27 min
Inclination
43.0033°
Eccentricity
0.0001691
Mean motion
15.27575568 rev/d
Perigee alt
481.9 km
Apogee alt
484.2 km
Semi-major
6,861.2 km
B*
2.6814e-5
RAAN
337.5241°
Arg perigee
275.6464°
Mean anomaly
84.4195°
Rev number
13,649

§ Raw data

STARLINK-316661 59572U 24076J   26264.26491693  .00000476  00000+0  26814-4 0  99982 59572  43.0033 337.5241 0001691 275.6464  84.4195 15.27575568136494

JSON: /api/v1/satellites/59572 · /tle

For live sub-satellite position, see the globe view (requires WebGL).

§ Visibility from observer

Set your observer location to see the next 7 days of passes ≥ 10°. The values pass through the URL so the page stays shareable.

No JS? Fill the form by hand. The geolocation button needs JavaScript.